Tracking 19245 objects as of 14-Aug-2018
HD Live streaming from Space Station
objects crossing your sky now

RADUGA 1-4

Track RADUGA 1-4 now!
RADUGA 1-4 is classified as:


NORAD ID: 25642
Int'l Code: 1999-010A
Perigee: 35,756.1 km
Apogee: 35,801.1 km
Inclination: 14.5 °
Period: 1,435.3 minutes
Semi major axis: 42149 km
RCS: 12.5893 m2 (large)
Launch date: February 28, 1999
Source: Commonwealth of Independent States (former USSR) (CIS)
Launch site: TYURATAM MISSILE AND SPACE COMPLEX (TTMTR)

Military communication.
aabbcc
Your satellite tracking list
Your tracking list is empty




NASA's NSSDC Master Catalog

Two Line Element Set (TLE):
1 25642U 99010A   18224.53385215 -.00000366 +00000-0 +00000-0 0  9993
2 25642 014.4664 026.8243 0005330 242.1623 348.0575 01.00325837071236
Source of the keplerian elements: AFSPC